Training

Spin Video   We captured this 11 turn spin one day while out enjoying a flight in the Super Decathlon. Our advanced stall and spin class generally does 2-3 turn … [Read More...]

Weather

METAR FOR KCHA (Issued: Sat, February 13th 2016 10:53 PM UTC):
KCHA 132253Z 35008KT 10SM FEW150 SCT250 02/M17 A3042 RMK AO2 SLP307 T00171172

Accomplishments

Congratulations

Congratulations, Ray Sikich who soloed in N68810 on June 3, 2015 … [Read More...]

Congratulations

Congratulations to Bobby Fitzu, for soloing on May 8, 2015 … [Read More...]

Dallas Bay Skypark - 1A0